Terminal Aerodrome Forecast
Issued by NWS Quad Cities IA IL

Home | Current Version | Previous Version | Text Only | Print | Product List | Glossary On
Versions: 1 2 3 4 5 6 7 8 9 10 11 12 13 14 15 16 17 18 19 20 21 22 23 24 25 26 27 28 29 30 31 32 33 34 35 36 37 38 39 40 41 42 43 44
066
FTUS43 KDVN 290520
TAFMLI
TAF
KMLI 290520Z 2906/3006 07004KT P6SM BKN200
      TEMPO 2907/2909 BKN025
     FM290900 08007KT P6SM OVC025
     FM291900 08013G19KT 3SM -RA BR OVC020
     FM300100 07015G24KT 2SM -RA BR OVC012=

USA.gov is the U.S. government's official web portal to all federal, state and local government web resources and services.